Theta_e
298 298 298 299 300 300 300 300 299 298 297 296 297 299 301 302 303 303 304 303 300 301 299 298 298 299 297 294 292 291 291 291 291 285 283 283 282 283 283 284 285 284 284
297 298 298 298 298 298 298 298 297 297 295 295 293 294 297 299 299 300 300 300 298 297 297 296 296 296 295 294 291 290 289 290 291 287 280 281 282 282 283 283 283 283 282
296 297 297 296 296 296 296 296 295 295 294 292 291 290 290 293 296 296 297 297 298 298 297 294 295 294 293 293 291 290 288 288 288 282 279 280 280 281 280 282 281 280 281
294 295 295 295 295 295 295 294 294 293 292 290 289 289 288 288 288 290 291 292 292 293 293 293 293 292 292 290 289 288 286 285 284 284 280 279 279 279 280 279 278 279 279
291 292 293 294 293 294 292 291 291 290 289 289 288 287 287 286 286 286 287 288 290 290 289 290 290 290 290 290 288 286 285 285 283 282 279 278 277 277 277 278 278 278 279
288 288 288 288 288 289 289 289 288 288 287 287 286 286 285 285 289 291 288 286 287 287 287 286 287 286 287 291 291 290 287 285 283 282 279 278 278 278 279 278 278 277 276
284 285 285 286 285 287 287 287 287 287 286 285 285 285 284 284 289 290 290 286 286 286 286 286 285 285 285 286 289 290 288 290 287 283 280 280 278 279 279 278 278 279 278
284 284 284 284 284 285 285 286 284 284 282 282 282 282 282 283 288 289 289 287 285 285 285 285 284 283 284 284 285 284 284 285 285 284 283 282 281 281 282 282 281 280 278
283 283 283 282 282 283 282 282 281 278 278 278 279 278 277 280 287 288 288 285 284 283 284 284 283 283 284 287 284 282 281 282 286 286 285 286 287 287 284 281 278 276 275
282 282 282 281 279 280 281 280 278 275 278 278 279 276 276 277 286 287 287 285 283 282 282 282 283 282 285 287 283 281 280 281 283 283 285 286 287 286 286 283 280 276 274
279 279 279 278 277 278 277 275 273 273 275 273 275 276 281 282 283 286 288 284 283 281 280 280 282 285 286 288 285 282 282 282 284 283 282 282 282 282 282 282 281 279 273
277 276 275 275 275 276 270 272 271 270 271 271 274 278 279 280 282 284 286 288 285 281 280 281 281 285 287 288 284 285 286 284 283 281 280 280 280 280 281 281 282 281 281
270 273 276 275 274 272 270 272 270 267 268 269 274 277 278 279 280 283 285 288 286 282 282 282 283 285 286 287 285 286 284 282 282 279 279 278 279 280 280 279 278 278 278
274 274 273 274 275 274 279 278 276 276 274 276 276 277 277 277 277 279 282 284 285 283 283 282 283 284 285 285 284 285 284 282 279 279 279 278 278 277 277 277 275 273 272
276 278 279 280 279 277 275 273 274 276 278 276 276 276 276 277 278 280 281 283 283 282 279 279 279 279 280 281 279 281 283 282 280 280 279 278 277 277 276 275 275 273 270
270 275 276 274 272 273 272 273 282 283 283 283 283 280 279 281 284 283 283 285 285 284 277 276 276 277 277 278 278 277 277 278 278 277 280 279 278 274 270 270 270 269 269
266 270 276 275 270 270 272 271 270 278 285 285 285 284 284 284 284 284 284 285 286 283 276 275 275 275 275 275 274 277 276 273 271 271 271 270 275 275 274 271 268 268 267
264 268 273 274 272 271 272 276 276 274 276 276 281 281 283 283 285 284 284 284 282 282 275 275 274 276 276 275 274 271 270 270 271 272 273 274 276 275 272 268 267 265 265
267 275 278 273 272 274 274 277 276 274 275 275 274 276 274 278 279 279 281 276 275 274 273 272 271 271 271 271 271 272 273 272 271 269 266 261 261 266 263 264 265 265 264
267 272 273 272 272 271 271 275 276 275 272 271 270 269 270 271 269 268 268 269 270 268 268 267 266 265 265 265 265 264 264 263 260 258 258 258 259 261 261 260 262 261 260
265 268 272 270 268 268 269 267 269 272 270 269 268 273 274 266 264 264 263 262 262 262 262 262 260 259 257 257 258 258 259 256 254 254 254 255 257 258 259 261 259 259 259
263 265 268 269 269 269 267 267 267 267 266 266 263 265 269 262 260 259 259 258 257 256 255 257 256 253 253 253 254 255 252 252 250 251 253 255 256 255 257 257 257 259 257
264 265 266 266 266 267 266 265 265 264 263 262 262 261 260 259 258 256 256 254 255 253 254 254 252 252 250 250 250 249 251 250 250 250 251 251 252 252 252 254 255 254 255
264 264 264 264 265 264 264 263 263 262 262 261 260 259 258 258 257 256 255 254 254 254 254 254 254 253 253 250 247 245 244 245 243 245 245 246 247 247 250 252 254 255 256
262 263 263 263 262 262 262 261 261 260 260 260 259 258 257 256 255 256 256 255 256 256 256 255 253 251 251 250 247 245 245 251 246 245 243 244 245 244 244 245 247 249 252
260 260 261 261 261 261 261 260 260 260 259 259 258 257 255 255 256 256 255 255 256 255 254 253 252 250 249 247 246 249 250 255 251 250 244 243 244 243 243 245 246 247 250
Wind_Speed
2 2 4 4 4 5 5 6 6 6 7 7 7 7 8 9 9 9 10 8 10 11 10 11 13 13 9 8 7 8 9 9 12 2 2 4 9 12 9 10 10 10 8
6 5 6 5 4 5 6 6 6 7 6 7 7 8 8 9 8 10 10 9 9 11 10 11 11 8 11 9 8 11 11 10 9 7 2 3 3 7 8 11 8 8 7
5 6 6 6 5 7 7 6 6 6 7 6 6 8 9 9 9 9 9 9 9 10 10 10 11 9 10 8 8 8 7 5 7 3 4 2 2 5 5 6 8 6 5
6 6 7 7 6 6 7 6 6 6 7 6 7 8 7 7 7 7 7 8 8 8 8 8 9 10 11 9 9 9 7 8 7 6 4 3 2 3 5 6 6 3 5
7 7 7 8 6 7 7 7 7 6 6 6 6 6 6 6 5 7 7 8 9 9 7 8 8 9 12 11 8 9 10 9 7 7 4 3 4 5 10 6 7 4 3
8 8 7 7 7 7 7 7 6 7 6 6 6 6 6 5 11 13 10 7 7 8 7 6 6 7 9 15 18 16 14 11 10 7 4 4 6 4 6 6 4 3 3
6 7 7 7 7 7 6 6 7 7 4 6 6 6 7 6 12 14 14 6 7 7 7 5 5 4 6 6 13 14 15 19 16 10 10 7 6 8 9 7 4 5 4
7 7 8 9 9 8 7 6 5 4 5 4 5 5 5 6 12 13 13 7 6 6 6 5 6 6 8 8 8 7 6 6 8 5 7 7 4 10 10 6 6 5 3
9 8 7 7 8 8 8 7 5 2 2 3 3 3 4 5 10 12 10 5 6 5 5 6 7 7 11 16 9 8 7 4 6 9 11 14 15 17 12 8 5 4 3
8 9 7 6 6 6 6 7 3 3 3 2 4 4 5 5 8 11 10 3 5 3 2 4 9 7 13 17 8 9 9 8 8 6 6 8 9 10 15 7 7 5 3
5 6 5 4 5 5 6 2 3 3 3 3 3 3 3 3 5 10 12 4 5 3 4 3 4 12 14 17 13 9 9 10 12 7 5 4 5 6 4 5 6 6 4
4 5 6 5 4 3 3 4 3 3 3 4 3 3 2 2 5 6 10 11 9 4 4 3 4 12 12 13 13 15 16 14 5 5 5 4 4 5 5 6 7 7 5
5 6 5 5 4 3 3 3 2 2 1 3 2 2 2 2 2 7 8 9 12 4 3 6 9 13 14 12 16 15 12 6 6 4 5 4 3 3 4 3 2 2 2
7 6 4 4 5 3 3 3 2 2 2 2 3 3 2 2 2 2 1 2 8 4 4 1 3 5 6 5 8 10 5 5 5 5 3 3 3 3 4 4 3 3 2
7 7 6 4 4 4 3 3 3 3 2 1 1 1 2 3 3 5 3 1 4 5 4 2 1 2 2 3 2 3 5 5 5 4 4 4 3 4 4 3 3 3 4
7 6 5 3 3 3 1 3 5 5 4 5 4 3 2 8 10 6 8 5 9 11 3 2 1 2 3 2 3 2 1 3 3 3 3 4 4 4 3 2 2 3 4
7 8 7 5 3 2 1 0 2 4 7 3 3 1 4 3 1 3 6 6 12 10 3 2 2 2 1 2 3 2 1 1 2 2 2 2 2 1 2 2 2 3 3
7 10 7 4 3 3 2 1 0 0 1 2 11 12 16 17 7 3 1 4 0 4 2 2 3 3 2 3 3 3 1 0 0 0 1 1 1 4 2 3 3 3 2
8 7 5 3 3 3 2 3 2 2 1 2 3 5 9 12 12 14 13 4 2 3 3 4 4 4 3 3 3 3 3 2 2 1 1 0 1 1 2 2 1 3 3
6 8 4 2 2 2 2 3 3 5 3 2 3 2 4 5 4 5 6 5 5 5 5 5 4 5 5 4 4 3 3 3 2 2 1 1 1 1 1 1 1 2 2
4 4 5 2 2 2 1 2 2 3 3 3 3 5 10 4 4 4 4 5 5 5 4 4 4 4 4 3 3 3 4 3 2 2 2 2 2 2 2 2 2 2 2
3 2 2 3 3 3 2 3 3 3 3 5 3 6 12 5 4 4 4 4 4 3 3 3 3 3 3 3 3 3 3 2 2 2 2 1 1 1 2 1 1 1 2
2 2 3 3 4 3 3 4 4 4 5 5 4 4 4 4 3 3 3 2 2 2 3 3 2 3 2 2 2 1 1 1 2 1 0 0 1 1 1 2 2 2 2
3 4 4 4 3 3 4 4 4 6 5 4 4 4 3 3 3 2 2 1 1 2 1 2 2 3 3 2 2 1 1 2 1 1 3 2 2 2 2 2 2 3 2
3 4 4 3 3 3 3 4 4 4 3 2 3 2 2 2 2 2 2 2 2 3 3 2 2 3 3 4 4 4 4 5 2 3 2 2 4 3 2 2 3 2 3
3 4 4 3 3 3 3 3 3 3 2 2 1 1 0 1 1 2 2 2 2 3 4 2 3 5 6 5 6 6 6 7 6 6 4 3 4 3 3 4 5 3 3
Wind_Direction
299 270 248 243 234 234 231 236 216 188 194 199 202 213 217 218 214 216 227 221 217 223 215 217 222 221 219 204 204 206 221 221 244 186 141 159 179 194 183 197 203 203 204
333 322 297 293 267 252 250 244 219 215 203 205 203 208 213 217 209 214 221 222 217 224 220 219 223 219 224 210 202 212 216 212 227 231 132 159 170 190 194 199 199 203 186
315 296 302 288 285 274 266 258 241 232 226 217 201 210 210 211 217 218 220 220 224 228 224 219 225 213 221 213 208 211 210 198 203 148 151 124 122 168 165 187 197 190 175
321 312 298 294 269 264 263 257 245 233 235 218 215 218 210 202 210 213 214 223 221 222 217 214 215 207 216 201 201 202 178 179 179 184 157 140 136 153 174 180 185 208 186
340 330 310 306 303 276 270 260 253 244 241 233 228 222 213 208 213 212 216 223 229 230 221 219 220 215 215 203 194 195 183 186 181 179 153 147 154 150 183 184 196 160 181
335 326 317 313 299 289 288 279 262 253 245 234 230 221 212 216 227 231 222 219 225 228 230 227 222 211 219 217 213 207 194 187 188 180 161 168 178 162 161 166 146 155 185
321 313 318 324 321 308 301 291 274 265 244 236 235 221 226 219 229 231 228 215 226 225 224 213 201 194 200 204 221 211 211 210 190 173 163 173 164 178 164 157 165 165 183
331 334 341 339 325 316 310 287 277 268 245 240 238 231 228 239 241 235 225 214 215 217 213 207 208 194 195 180 174 173 170 176 171 159 165 169 177 158 177 161 170 140 89
339 338 338 333 321 320 313 305 291 271 257 254 266 258 241 262 248 243 233 200 225 219 198 186 189 189 204 195 172 158 144 136 164 176 186 168 172 171 145 123 149 134 183
336 327 324 323 318 309 303 308 288 286 260 228 244 220 220 248 250 242 241 192 209 200 200 196 192 181 196 197 172 158 157 159 147 128 136 152 148 158 161 166 152 162 130
304 307 314 316 313 304 306 311 306 293 306 294 273 278 256 245 266 255 242 198 213 181 186 193 186 201 207 197 168 169 169 149 172 164 149 135 140 145 158 171 173 175 167
300 304 308 308 307 310 311 310 322 334 305 295 291 282 277 289 264 267 256 237 200 180 192 189 195 205 205 201 161 170 165 159 167 150 141 165 167 179 185 189 201 212 217
321 306 294 304 296 307 312 306 324 355 312 288 291 296 303 322 306 274 258 273 198 187 172 193 212 223 207 191 165 181 178 157 157 163 174 174 182 176 134 145 185 184 168
301 294 283 295 306 295 292 282 257 242 247 267 278 274 281 269 269 282 275 262 176 155 186 187 225 215 180 155 175 181 184 151 150 157 172 143 129 155 188 182 185 162 165
306 298 291 280 283 299 282 264 270 265 232 266 245 262 300 297 272 246 265 244 150 145 109 70 74 73 134 126 86 127 155 150 164 165 172 172 180 177 200 174 167 160 194
301 292 281 268 273 275 261 303 277 255 237 241 242 190 225 263 275 228 211 233 156 136 75 84 46 109 120 109 127 101 74 125 144 135 165 183 195 197 177 152 135 179 210
283 285 288 265 242 237 260 139 327 337 42 105 111 265 225 281 187 201 188 187 157 137 101 121 133 113 154 125 128 142 206 199 119 150 164 189 190 196 167 190 185 166 218
282 267 262 253 222 216 196 174 77 113 348 8 43 51 45 40 42 136 187 143 152 136 100 140 153 167 168 171 166 175 185 87 104 120 195 190 207 260 211 206 179 173 181
298 289 259 216 197 211 195 190 148 111 29 51 8 20 10 12 27 32 44 48 64 47 41 49 31 37 39 37 31 40 29 33 43 358 30 64 285 168 216 203 156 166 149
288 301 279 194 187 180 177 162 156 137 119 71 52 3 343 18 40 22 29 43 57 56 44 51 35 38 39 36 36 38 50 45 37 44 40 92 100 124 151 157 158 146 165
297 310 333 13 57 31 44 108 87 99 102 89 58 37 48 72 59 45 37 41 43 38 37 45 46 44 33 29 37 45 49 34 31 32 25 20 43 39 51 72 133 144 140
303 351 10 14 11 29 18 51 66 91 93 87 53 38 63 54 54 56 55 41 37 45 42 35 42 41 43 39 32 42 45 14 348 360 12 24 57 115 121 128 175 150 135
353 38 51 49 51 35 37 44 64 73 82 77 69 67 53 56 60 54 60 36 34 33 30 40 47 34 46 35 22 91 67 303 268 230 290 287 272 216 160 168 165 176 177
21 50 71 58 44 49 49 53 60 67 75 76 75 64 58 48 51 48 42 33 26 13 21 23 21 7 352 336 328 320 256 260 206 221 171 158 222 227 159 165 193 196 194
29 57 65 71 79 84 77 62 65 53 53 64 80 85 78 36 11 6 14 4 358 345 332 326 304 289 293 299 290 283 270 290 241 203 159 164 198 186 175 181 192 204 177
26 47 54 55 58 59 74 83 65 38 28 25 23 22 71 270 254 287 307 314 294 278 280 279 283 273 271 259 259 261 250 254 242 216 181 169 179 194 181 199 203 185 187